Back to catalog

USA 521

AliveMilitaryLEO
NORAD 63596·PAYLOAD·🇺🇸 United States

Launched Apr 16, 2025 from Vandenberg Space Force Base

Loading…

Next Passes (next 24 hours)

TLE

StaleSource: Mike McCants

Epoch: Mar 19, 2026, 03:32 UTC

1 63596U 25077A   26078.14739726 0.00000000  00000-0  00000-0 0    05
2 63596  63.3971  83.6849 0018000 293.5214  66.4786 13.38600918    09

Track USA 521 in real time with AllMySat

Download on the App Store